,,PA_Meas_PMT16A,,PR_Meas_QMR101_102,,RH_Meas_QMH101,,SR_Meas_QMS101,,TA_Meas_QMH101,,GenWind,,GenWind,
time,status,PA,status,PR,status,RH,status,SR,status,TA,status,DirAvg,status,SpdAvg,
2009-10-14, 00:00:05,VALID,920.025,VALID,0,VALID,95.6739,VALID,0,VALID,18.7655,VALID,148,VALID,0,
2009-10-14, 00:01:05,VALID,920.01,VALID,0,VALID,95.7958,VALID,0,VALID,18.7265,VALID,148,VALID,0,
2009-10-14, 00:02:05,VALID,919.997,VALID,0,VALID,95.9636,VALID,0,VALID,18.707,VALID,148,VALID,0,
2009-10-14, 00:03:05,VALID,919.965,VALID,0,VALID,96.055,VALID,0,VALID,18.7084,VALID,148,VALID,0.33125,
2009-10-14, 00:04:05,VALID,919.95,VALID,0,VALID,96.4133,VALID,0,VALID,18.7265,VALID,148,VALID,0.421875,
2009-10-14, 00:05:05,VALID,919.934,VALID,0,VALID,96.7793,VALID,0,VALID,18.824,VALID,148,VALID,0.655469,
2009-10-14, 00:06:05,VALID,919.928,VALID,0,VALID,96.703,VALID,0,VALID,18.9409,VALID,148,VALID,0.719922,
2009-10-14, 00:07:05,VALID,919.927,VALID,0,VALID,96.4667,VALID,0,VALID,18.9994,VALID,148,VALID,0.627734,
2009-10-14, 00:08:05,VALID,919.93,VALID,0,VALID,96.1465,VALID,0.107441,VALID,19.0564,VALID,148,VALID,0.590625,
2009-10-14, 00:09:05,VALID,919.922,VALID,0,VALID,95.4833,VALID,0.107441,VALID,19.0189,VALID,148,VALID,0.685156,
2009-10-14, 00:10:05,VALID,919.889,VALID,0,VALID,95.5976,VALID,0.107441,VALID,18.998,VALID,148,VALID,0.787109,
2009-10-14, 00:11:05,VALID,919.885,VALID,0,VALID,95.5595,VALID,0.107441,VALID,18.9994,VALID,148,VALID,0.876562,
2009-10-14, 00:12:05,VALID,919.893,VALID,0,VALID,95.5062,VALID,0.107441,VALID,18.959,VALID,148,VALID,0.81875,
2009-10-14, 00:13:05,VALID,919.893,VALID,0,VALID,95.5138,VALID,0,VALID,18.9395,VALID,148,VALID,0.983984,
2009-10-14, 00:14:05,VALID,919.903,VALID,0,VALID,95.6129,VALID,0,VALID,18.8796,VALID,148,VALID,0.605859,
2009-10-14, 00:15:05,VALID,919.924,VALID,0,VALID,95.7196,VALID,0.107441,VALID,18.8615,VALID,148,VALID,0.576172,
2009-10-14, 00:16:05,VALID,919.93,VALID,0,VALID,95.7272,VALID,0,VALID,18.8434,VALID,148,VALID,0.652734,
2009-10-14, 00:17:05,VALID,919.891,VALID,0,VALID,95.9254,VALID,0,VALID,18.764,VALID,148,VALID,0.46875,
2009-10-14, 00:18:05,VALID,919.877,VALID,0,VALID,96.0398,VALID,0.107441,VALID,18.7446,VALID,148,VALID,0.539844,
2009-10-14, 00:19:05,VALID,919.851,VALID,0,VALID,96.0932,VALID,0.107441,VALID,18.7056,VALID,148,VALID,0.391406,
2009-10-14, 00:20:05,VALID,919.827,VALID,0,VALID,96.0093,VALID,0.107441,VALID,18.6485,VALID,148,VALID,0.453125,
2009-10-14, 00:21:05,VALID,919.767,VALID,0,VALID,96.1008,VALID,0.107441,VALID,18.5886,VALID,148,VALID,0.793359,
2009-10-14, 00:22:05,VALID,919.742,VALID,0,VALID,96.2304,VALID,0.107441,VALID,18.5496,VALID,148,VALID,0.642969,
2009-10-14, 00:23:05,VALID,919.732,VALID,0,VALID,96.3676,VALID,0,VALID,18.5135,VALID,148,VALID,0.851953,
2009-10-14, 00:24:05,VALID,919.682,VALID,0,VALID,96.5353,VALID,0,VALID,18.5121,VALID,148,VALID,0.757813,
2009-10-14, 00:25:05,VALID,919.68,VALID,0,VALID,96.5887,VALID,0,VALID,18.494,VALID,148,VALID,0.639453,
2009-10-14, 00:26:05,VALID,919.638,VALID,0,VALID,96.7259,VALID,0,VALID,18.494,VALID,148,VALID,0.460547,
2009-10-14, 00:27:05,VALID,919.633,VALID,0,VALID,96.8021,VALID,0,VALID,18.494,VALID,148,VALID,0.445313,
2009-10-14, 00:28:05,VALID,919.562,VALID,0,VALID,96.8479,VALID,0,VALID,18.4731,VALID,148,VALID,0.328125,
2009-10-14, 00:29:05,VALID,919.561,VALID,0,VALID,96.9775,VALID,0,VALID,18.5121,VALID,148,VALID,0.565625,
2009-10-14, 00:30:05,VALID,919.529,VALID,0,VALID,97.0842,VALID,0,VALID,18.572,VALID,148,VALID,0.753516,
2009-10-14, 00:31:05,VALID,919.487,VALID,0,VALID,97.0918,VALID,0,VALID,18.5525,VALID,148,VALID,0.840234,
2009-10-14, 00:32:05,VALID,919.471,VALID,0,VALID,97.0918,VALID,0,VALID,18.5316,VALID,148,VALID,0.684766,
2009-10-14, 00:33:05,VALID,919.43,VALID,0,VALID,97.1147,VALID,0,VALID,18.5511,VALID,148,VALID,0.683594,
2009-10-14, 00:34:05,VALID,919.421,VALID,0,VALID,97.1604,VALID,0,VALID,18.572,VALID,148,VALID,0.524219,
2009-10-14, 00:35:05,VALID,919.396,VALID,0,VALID,97.1376,VALID,0,VALID,18.5705,VALID,148,VALID,0.623047,
2009-10-14, 00:36:05,VALID,919.36,VALID,0,VALID,97.1528,VALID,0,VALID,18.5705,VALID,148,VALID,0.516016,
2009-10-14, 00:37:05,VALID,919.318,VALID,0,VALID,97.1528,VALID,0,VALID,18.5914,VALID,148,VALID,0.518359,
2009-10-14, 00:38:05,VALID,919.277,VALID,0,VALID,97.0994,VALID,0,VALID,18.5511,VALID,148,VALID,0.36875,
2009-10-14, 00:39:05,VALID,919.253,VALID,0,VALID,97.0385,VALID,0,VALID,18.533,VALID,148,VALID,0.474219,
2009-10-14, 00:40:05,VALID,919.233,VALID,0,VALID,97.0766,VALID,0,VALID,18.5135,VALID,148,VALID,0.457422,
2009-10-14, 00:41:05,VALID,919.212,VALID,0,VALID,97.2367,VALID,0,VALID,18.5316,VALID,148,VALID,0.520703,
2009-10-14, 00:42:05,VALID,919.233,VALID,0,VALID,97.229,VALID,0,VALID,18.5511,VALID,148,VALID,0.355078,
2009-10-14, 00:43:04,VALID,919.196,VALID,0,VALID,97.2138,VALID,0,VALID,18.5316,VALID,148,VALID,0.38125,
2009-10-14, 00:44:04,VALID,919.209,VALID,0,VALID,97.2595,VALID,0,VALID,18.5511,VALID,148,VALID,0.412109,
2009-10-14, 00:45:04,VALID,919.24,VALID,0,VALID,97.229,VALID,0,VALID,18.5525,VALID,148,VALID,0.396094,
2009-10-14, 00:46:04,VALID,919.254,VALID,0,VALID,97.2214,VALID,0,VALID,18.5316,VALID,148,VALID,0.553125,
2009-10-14, 00:47:04,VALID,919.251,VALID,0,VALID,97.2443,VALID,0,VALID,18.572,VALID,148,VALID,0.645703,
2009-10-14, 00:48:04,VALID,919.219,VALID,0,VALID,97.2977,VALID,0,VALID,18.59,VALID,148,VALID,0.908984,
2009-10-14, 00:49:04,VALID,919.21,VALID,0,VALID,97.2977,VALID,0,VALID,18.6109,VALID,148,VALID,0.769531,
2009-10-14, 00:50:04,VALID,919.184,VALID,0,VALID,97.2977,VALID,0,VALID,18.6109,VALID,148,VALID,1.14961,
2009-10-14, 00:51:04,VALID,919.201,VALID,0,VALID,97.2748,VALID,0,VALID,18.6109,VALID,148,VALID,0.873438,
2009-10-14, 00:52:04,VALID,919.181,VALID,0,VALID,97.2367,VALID,0,VALID,18.5914,VALID,148,VALID,0.821875,
2009-10-14, 00:53:04,VALID,919.163,VALID,0,VALID,97.2672,VALID,0,VALID,18.6109,VALID,148,VALID,0.276172,
2009-10-14, 00:54:04,VALID,919.164,VALID,0,VALID,97.2595,VALID,0,VALID,18.59,VALID,148,VALID,0.627734,
2009-10-14, 00:55:04,VALID,919.162,VALID,0,VALID,97.2367,VALID,0,VALID,18.5914,VALID,148,VALID,0.34375,
2009-10-14, 00:56:04,VALID,919.179,VALID,0,VALID,97.1986,VALID,0,VALID,18.572,VALID,148,VALID,0.578516,
2009-10-14, 00:57:04,VALID,919.191,VALID,0,VALID,97.1757,VALID,0,VALID,18.5511,VALID,148,VALID,0.594141,
2009-10-14, 00:58:04,VALID,919.184,VALID,0,VALID,97.1604,VALID,0,VALID,18.5525,VALID,148,VALID,0.324219,
2009-10-14, 00:59:04,VALID,919.182,VALID,0,VALID,97.1452,VALID,0,VALID,18.5121,VALID,148,VALID,0.0476562,
2009-10-14, 01:00:04,VALID,919.152,VALID,0,VALID,97.1376,VALID,0,VALID,18.5135,VALID,148,VALID,0,
2009-10-14, 01:01:04,VALID,919.136,VALID,0,VALID,97.1376,VALID,0,VALID,18.494,VALID,148,VALID,0.184766,
2009-10-14, 01:02:04,VALID,919.074,VALID,0,VALID,97.0842,VALID,0,VALID,18.455,VALID,148,VALID,0.245312,
2009-10-14, 01:03:04,VALID,919.061,VALID,0,VALID,97.1299,VALID,0,VALID,18.4355,VALID,148,VALID,0.308203,
2009-10-14, 01:04:04,VALID,919.056,VALID,0,VALID,97.1757,VALID,0,VALID,18.4355,VALID,148,VALID,0.366406,
2009-10-14, 01:05:04,VALID,919.022,VALID,0,VALID,97.2214,VALID,0,VALID,18.4341,VALID,148,VALID,0.515625,
2009-10-14, 01:06:04,VALID,919.011,VALID,0,VALID,97.1909,VALID,0,VALID,18.4355,VALID,148,VALID,0.559766,
2009-10-14, 01:07:04,VALID,919.019,VALID,0,VALID,97.1223,VALID,0,VALID,18.3951,VALID,148,VALID,0.596484,
2009-10-14, 01:08:04,VALID,919.011,VALID,0,VALID,97.2977,VALID,0,VALID,18.4327,VALID,148,VALID,0.666406,
2009-10-14, 01:09:04,VALID,919.029,VALID,0,VALID,97.3281,VALID,0,VALID,18.4731,VALID,148,VALID,0.567969,
2009-10-14, 01:10:04,VALID,919.049,VALID,0,VALID,97.3281,VALID,0,VALID,18.4731,VALID,148,VALID,0.521484,
2009-10-14, 01:11:04,VALID,918.988,VALID,0,VALID,97.3358,VALID,0,VALID,18.5121,VALID,148,VALID,0.682813,
2009-10-14, 01:12:04,VALID,918.993,VALID,0,VALID,97.3358,VALID,0,VALID,18.5121,VALID,148,VALID,0.562109,
2009-10-14, 01:13:04,VALID,918.963,VALID,0,VALID,97.3434,VALID,0.107441,VALID,18.5107,VALID,148,VALID,0.961719,
2009-10-14, 01:14:04,VALID,918.956,VALID,0,VALID,97.3281,VALID,0,VALID,18.5316,VALID,148,VALID,1.05352,
2009-10-14, 01:15:04,VALID,918.959,VALID,0,VALID,97.3281,VALID,0,VALID,18.5302,VALID,148,VALID,0.956641,
2009-10-14, 01:16:04,VALID,918.925,VALID,0,VALID,97.2748,VALID,0.107441,VALID,18.5316,VALID,148,VALID,0.934375,
2009-10-14, 01:17:04,VALID,918.896,VALID,0,VALID,97.2977,VALID,0.107441,VALID,18.5107,VALID,148,VALID,0.861719,
2009-10-14, 01:18:04,VALID,918.913,VALID,0,VALID,97.3205,VALID,0.107441,VALID,18.5302,VALID,148,VALID,0.675,
2009-10-14, 01:19:04,VALID,918.932,VALID,0,VALID,97.2977,VALID,0,VALID,18.5511,VALID,148,VALID,0.433594,
2009-10-14, 01:20:04,VALID,918.906,VALID,0,VALID,97.2824,VALID,0,VALID,18.5121,VALID,148,VALID,0.352734,
2009-10-14, 01:21:04,VALID,918.897,VALID,0,VALID,97.2824,VALID,0,VALID,18.5121,VALID,148,VALID,0,
2009-10-14, 01:22:04,VALID,918.89,VALID,0,VALID,97.2748,VALID,0,VALID,18.5121,VALID,148,VALID,0.398047,
2009-10-14, 01:23:04,VALID,918.848,VALID,0,VALID,97.3053,VALID,0,VALID,18.5107,VALID,148,VALID,0.578906,
2009-10-14, 01:24:04,VALID,918.853,VALID,0,VALID,97.1986,VALID,0,VALID,18.4731,VALID,148,VALID,0.461328,
2009-10-14, 01:25:04,VALID,918.833,VALID,0,VALID,97.2138,VALID,0,VALID,18.4522,VALID,148,VALID,0.727734,
2009-10-14, 01:26:04,VALID,918.866,VALID,0,VALID,97.2214,VALID,0,VALID,18.4341,VALID,148,VALID,0.780859,
2009-10-14, 01:27:04,VALID,918.865,VALID,0,VALID,97.3205,VALID,0.107441,VALID,18.4522,VALID,148,VALID,0.898828,
2009-10-14, 01:28:04,VALID,918.847,VALID,0,VALID,97.3739,VALID,0,VALID,18.4926,VALID,148,VALID,0.972656,
2009-10-14, 01:29:04,VALID,918.832,VALID,0,VALID,97.351,VALID,0,VALID,18.4522,VALID,148,VALID,0.959375,
2009-10-14, 01:30:04,VALID,918.84,VALID,0,VALID,97.4273,VALID,0.107441,VALID,18.5511,VALID,148,VALID,1.27891,
2009-10-14, 01:31:04,VALID,918.84,VALID,0,VALID,97.4654,VALID,0,VALID,18.5496,VALID,148,VALID,0.927344,
2009-10-14, 01:32:04,VALID,918.833,VALID,0,VALID,97.3129,VALID,0.107441,VALID,18.5107,VALID,148,VALID,0.772266,
2009-10-14, 01:33:04,VALID,918.839,VALID,0,VALID,97.3281,VALID,0,VALID,18.4926,VALID,148,VALID,0.934375,
2009-10-14, 01:34:04,VALID,918.859,VALID,0,VALID,97.3205,VALID,0,VALID,18.4731,VALID,148,VALID,0.857422,
2009-10-14, 01:35:04,VALID,918.87,VALID,0,VALID,97.3586,VALID,0,VALID,18.4717,VALID,148,VALID,0.655078,
2009-10-14, 01:36:04,VALID,918.843,VALID,0,VALID,97.3358,VALID,0.107441,VALID,18.4731,VALID,148,VALID,0.883203,
2009-10-14, 01:37:04,VALID,918.858,VALID,0,VALID,97.3053,VALID,0,VALID,18.4341,VALID,148,VALID,1.31094,
2009-10-14, 01:38:04,VALID,918.864,VALID,0,VALID,97.29,VALID,0,VALID,18.3951,VALID,148,VALID,0.784766,
2009-10-14, 01:39:04,VALID,918.858,VALID,0,VALID,97.3053,VALID,0.107441,VALID,18.3547,VALID,148,VALID,1.16797,
2009-10-14, 01:40:04,VALID,918.82,VALID,0,VALID,97.3663,VALID,0,VALID,18.3756,VALID,132,VALID,1.44805,
2009-10-14, 01:41:04,VALID,918.835,VALID,0,VALID,97.3053,VALID,0,VALID,18.3561,VALID,132,VALID,1.20508,
2009-10-14, 01:42:04,VALID,918.801,VALID,0,VALID,97.3663,VALID,0,VALID,18.3561,VALID,132,VALID,1.19648,
2009-10-14, 01:43:04,VALID,918.787,VALID,0,VALID,97.3968,VALID,0.107441,VALID,18.3561,VALID,132,VALID,1.00625,
2009-10-14, 01:44:04,VALID,918.776,VALID,0,VALID,97.3586,VALID,0,VALID,18.3158,VALID,132,VALID,1.07187,
2009-10-14, 01:45:04,VALID,918.764,VALID,0,VALID,97.3815,VALID,0,VALID,18.3172,VALID,132,VALID,1.31211,
2009-10-14, 01:46:04,VALID,918.767,VALID,0,VALID,97.4273,VALID,0,VALID,18.2977,VALID,131,VALID,1.33594,
2009-10-14, 01:47:04,VALID,918.761,VALID,0,VALID,97.4349,VALID,0,VALID,18.2977,VALID,131,VALID,1.20977,
2009-10-14, 01:48:04,VALID,918.759,VALID,0,VALID,97.5111,VALID,0,VALID,18.2963,VALID,131,VALID,1.31484,
2009-10-14, 01:49:04,VALID,918.77,VALID,0,VALID,97.473,VALID,0,VALID,18.3172,VALID,131,VALID,1.61133,
2009-10-14, 01:50:04,VALID,918.777,VALID,0,VALID,97.534,VALID,0,VALID,18.3366,VALID,146,VALID,1.51094,
2009-10-14, 01:51:04,VALID,918.771,VALID,0,VALID,97.5645,VALID,0,VALID,18.3547,VALID,147,VALID,0.979688,
2009-10-14, 01:52:04,VALID,918.763,VALID,0,VALID,97.5569,VALID,0,VALID,18.3756,VALID,147,VALID,1.0293,
2009-10-14, 01:53:04,VALID,918.717,VALID,0,VALID,97.5569,VALID,0,VALID,18.3547,VALID,147,VALID,1.15547,
2009-10-14, 01:54:04,VALID,918.705,VALID,0,VALID,97.5797,VALID,0,VALID,18.4146,VALID,147,VALID,1.49609,
2009-10-14, 01:55:04,VALID,918.678,VALID,0,VALID,97.5721,VALID,0,VALID,18.4146,VALID,147,VALID,1.31016,
2009-10-14, 01:56:04,VALID,918.628,VALID,0,VALID,97.6102,VALID,0,VALID,18.3937,VALID,147,VALID,1.22383,
2009-10-14, 01:57:04,VALID,918.595,VALID,0,VALID,97.6026,VALID,0,VALID,18.4536,VALID,147,VALID,1.24805,
2009-10-14, 01:58:04,VALID,918.585,VALID,0,VALID,97.5645,VALID,0,VALID,18.4146,VALID,147,VALID,1.13789,
2009-10-14, 01:59:04,VALID,918.572,VALID,0,VALID,97.6255,VALID,0,VALID,18.4341,VALID,147,VALID,1.13359,
2009-10-14, 02:00:04,VALID,918.555,VALID,0,VALID,97.6331,VALID,0,VALID,18.4731,VALID,147,VALID,1.22617,
2009-10-14, 02:01:04,VALID,918.551,VALID,0,VALID,97.6102,VALID,0,VALID,18.4731,VALID,147,VALID,0.998047,
2009-10-14, 02:02:04,VALID,918.569,VALID,0,VALID,97.6331,VALID,0,VALID,18.4926,VALID,147,VALID,1.02266,
2009-10-14, 02:03:04,VALID,918.546,VALID,0,VALID,97.6178,VALID,0,VALID,18.4731,VALID,147,VALID,1.23086,
2009-10-14, 02:04:04,VALID,918.526,VALID,0,VALID,97.6407,VALID,0,VALID,18.4926,VALID,147,VALID,1.0543,
2009-10-14, 02:05:04,VALID,918.517,VALID,0,VALID,97.6331,VALID,0,VALID,18.4926,VALID,147,VALID,0.900781,
2009-10-14, 02:06:04,VALID,918.524,VALID,0,VALID,97.5035,VALID,0,VALID,18.4536,VALID,147,VALID,0.730078,
2009-10-14, 02:07:04,VALID,918.535,VALID,0,VALID,97.5569,VALID,0,VALID,18.4536,VALID,147,VALID,0.992188,
2009-10-14, 02:08:04,VALID,918.53,VALID,0,VALID,97.6331,VALID,0,VALID,18.4731,VALID,147,VALID,0.828125,
2009-10-14, 02:09:04,VALID,918.519,VALID,0,VALID,97.6102,VALID,0,VALID,18.4536,VALID,147,VALID,0.998438,
2009-10-14, 02:10:04,VALID,918.541,VALID,0,VALID,97.6026,VALID,0,VALID,18.4731,VALID,147,VALID,0.653125,
2009-10-14, 02:11:04,VALID,918.556,VALID,0,VALID,97.6331,VALID,0,VALID,18.4522,VALID,147,VALID,0.901172,
2009-10-14, 02:12:04,VALID,918.585,VALID,0,VALID,97.6026,VALID,0,VALID,18.4926,VALID,147,VALID,0.550391,
2009-10-14, 02:13:04,VALID,918.56,VALID,0,VALID,97.6102,VALID,0,VALID,18.5121,VALID,147,VALID,0.948047,
2009-10-14, 02:14:04,VALID,918.567,VALID,0,VALID,97.6483,VALID,0,VALID,18.5121,VALID,147,VALID,1.02656,
2009-10-14, 02:15:04,VALID,918.554,VALID,0,VALID,97.5797,VALID,0,VALID,18.4926,VALID,147,VALID,1.08125,
2009-10-14, 02:16:04,VALID,918.545,VALID,0,VALID,97.4959,VALID,0,VALID,18.4731,VALID,147,VALID,0.794141,
2009-10-14, 02:17:04,VALID,918.569,VALID,0,VALID,97.4959,VALID,0,VALID,18.4536,VALID,147,VALID,0.776953,
2009-10-14, 02:18:04,VALID,918.542,VALID,0,VALID,97.5187,VALID,0,VALID,18.4536,VALID,147,VALID,0.766016,
2009-10-14, 02:19:04,VALID,918.515,VALID,0,VALID,97.5416,VALID,0,VALID,18.4536,VALID,147,VALID,0.744531,
2009-10-14, 02:20:04,VALID,918.551,VALID,0,VALID,97.5569,VALID,0,VALID,18.4522,VALID,147,VALID,0.553906,
2009-10-14, 02:21:04,VALID,918.526,VALID,0,VALID,97.5035,VALID,0,VALID,18.4536,VALID,147,VALID,0.541406,
2009-10-14, 02:22:04,VALID,918.547,VALID,0,VALID,97.5111,VALID,0,VALID,18.4536,VALID,147,VALID,0.900781,
2009-10-14, 02:23:04,VALID,918.531,VALID,0,VALID,97.5264,VALID,0,VALID,18.4731,VALID,147,VALID,0.922656,
2009-10-14, 02:24:04,VALID,918.495,VALID,0,VALID,97.4806,VALID,0,VALID,18.4731,VALID,147,VALID,0.887109,
2009-10-14, 02:25:04,VALID,918.492,VALID,0,VALID,97.4425,VALID,0,VALID,18.4327,VALID,147,VALID,0.998438,
2009-10-14, 02:26:04,VALID,918.483,VALID,0,VALID,97.4044,VALID,0,VALID,18.4536,VALID,133,VALID,1.10195,
2009-10-14, 02:27:04,VALID,918.479,VALID,0,VALID,97.4196,VALID,0,VALID,18.4341,VALID,133,VALID,0.807422,
2009-10-14, 02:28:04,VALID,918.451,VALID,0,VALID,97.4577,VALID,0,VALID,18.4731,VALID,133,VALID,1.04922,
2009-10-14, 02:29:04,VALID,918.47,VALID,0,VALID,97.3739,VALID,0,VALID,18.4731,VALID,133,VALID,0.721094,
2009-10-14, 02:30:04,VALID,918.488,VALID,0,VALID,97.3586,VALID,0.107441,VALID,18.4717,VALID,133,VALID,0.7625,
2009-10-14, 02:31:04,VALID,918.476,VALID,0,VALID,97.2977,VALID,0,VALID,18.4536,VALID,133,VALID,0.717578,
2009-10-14, 02:32:04,VALID,918.468,VALID,0,VALID,97.3205,VALID,0,VALID,18.4522,VALID,133,VALID,0.675,
2009-10-14, 02:33:04,VALID,918.459,VALID,0,VALID,97.3053,VALID,0,VALID,18.4536,VALID,133,VALID,0.411328,
2009-10-14, 02:34:04,VALID,918.461,VALID,0,VALID,97.229,VALID,0,VALID,18.4146,VALID,133,VALID,0.353125,
2009-10-14, 02:35:04,VALID,918.434,VALID,0,VALID,97.1071,VALID,0,VALID,18.3951,VALID,133,VALID,0.233203,
2009-10-14, 02:36:04,VALID,918.436,VALID,0,VALID,96.9317,VALID,0.107441,VALID,18.2977,VALID,133,VALID,0.647266,
2009-10-14, 02:37:04,VALID,918.401,VALID,0,VALID,96.9394,VALID,0.107441,VALID,18.2587,VALID,133,VALID,1.0082,
2009-10-14, 02:38:04,VALID,918.377,VALID,0,VALID,97.0537,VALID,0,VALID,18.2392,VALID,133,VALID,0.841016,
2009-10-14, 02:39:04,VALID,918.393,VALID,0,VALID,97.2443,VALID,0,VALID,18.3172,VALID,133,VALID,0.725781,
2009-10-14, 02:40:04,VALID,918.364,VALID,0,VALID,97.3434,VALID,0,VALID,18.3951,VALID,133,VALID,0.666406,
2009-10-14, 02:41:04,VALID,918.337,VALID,0,VALID,97.3281,VALID,0,VALID,18.3937,VALID,133,VALID,0.375781,
2009-10-14, 02:42:04,VALID,918.313,VALID,0,VALID,97.2748,VALID,0,VALID,18.4132,VALID,133,VALID,0.167578,
2009-10-14, 02:43:04,VALID,918.307,VALID,0,VALID,96.9622,VALID,0,VALID,18.3561,VALID,133,VALID,0.341016,
2009-10-14, 02:44:04,VALID,918.28,VALID,0,VALID,96.7259,VALID,0,VALID,18.2183,VALID,133,VALID,0.29375,
2009-10-14, 02:45:04,VALID,918.27,VALID,0,VALID,96.764,VALID,0.107441,VALID,18.1988,VALID,133,VALID,0.0921875,
2009-10-14, 02:46:04,VALID,918.266,VALID,0,VALID,96.8479,VALID,0,VALID,18.2002,VALID,133,VALID,0,
2009-10-14, 02:47:04,VALID,918.243,VALID,0,VALID,96.947,VALID,0,VALID,18.2197,VALID,133,VALID,0,
2009-10-14, 02:48:04,VALID,918.188,VALID,0,VALID,96.9241,VALID,0,VALID,18.1988,VALID,133,VALID,0.0640625,
2009-10-14, 02:49:04,VALID,918.201,VALID,0,VALID,96.7411,VALID,0,VALID,18.1612,VALID,133,VALID,0.278125,
2009-10-14, 02:50:04,VALID,918.199,VALID,0,VALID,96.7793,VALID,0,VALID,18.1222,VALID,133,VALID,0.298047,
2009-10-14, 02:51:04,VALID,918.169,VALID,0,VALID,97.0766,VALID,0,VALID,18.1612,VALID,133,VALID,0.31875,
2009-10-14, 02:52:04,VALID,918.181,VALID,0,VALID,97.1986,VALID,0,VALID,18.2392,VALID,133,VALID,0.345703,
2009-10-14, 02:53:04,VALID,918.184,VALID,0,VALID,97.2443,VALID,0,VALID,18.2587,VALID,133,VALID,0.348437,
2009-10-14, 02:54:04,VALID,918.172,VALID,0,VALID,97.1147,VALID,0,VALID,18.2587,VALID,133,VALID,0.213281,
2009-10-14, 02:55:04,VALID,918.205,VALID,0,VALID,96.5811,VALID,0,VALID,18.0833,VALID,133,VALID,0.43125,
2009-10-14, 02:56:04,VALID,918.188,VALID,0,VALID,96.3447,VALID,0,VALID,17.9663,VALID,133,VALID,0.704297,
2009-10-14, 02:57:04,VALID,918.189,VALID,0,VALID,96.2151,VALID,0,VALID,17.8494,VALID,133,VALID,0.441406,
2009-10-14, 02:58:04,VALID,918.138,VALID,0,VALID,96.4362,VALID,0,VALID,17.8104,VALID,133,VALID,0.400391,
2009-10-14, 02:59:04,VALID,918.102,VALID,0,VALID,96.5506,VALID,0,VALID,17.7714,VALID,133,VALID,0.282813,
2009-10-14, 03:00:04,VALID,918.11,VALID,0,VALID,96.703,VALID,0,VALID,17.7714,VALID,133,VALID,0,
2009-10-14, 03:01:04,VALID,918.117,VALID,0,VALID,96.7564,VALID,0,VALID,17.7728,VALID,133,VALID,0,
2009-10-14, 03:02:04,VALID,918.137,VALID,0,VALID,96.886,VALID,0,VALID,17.7909,VALID,133,VALID,0,
2009-10-14, 03:03:04,VALID,918.086,VALID,0,VALID,96.9698,VALID,0,VALID,17.8313,VALID,133,VALID,0,
2009-10-14, 03:04:04,VALID,918.103,VALID,0,VALID,97.0537,VALID,0,VALID,17.8508,VALID,133,VALID,0,
2009-10-14, 03:05:04,VALID,918.078,VALID,0,VALID,97.1223,VALID,0,VALID,17.8689,VALID,133,VALID,0.189844,
2009-10-14, 03:06:04,VALID,918.087,VALID,0,VALID,97.2672,VALID,0,VALID,17.9468,VALID,133,VALID,0,
2009-10-14, 03:07:04,VALID,918.06,VALID,0,VALID,97.3968,VALID,0,VALID,18.0443,VALID,133,VALID,0.480078,
2009-10-14, 03:08:04,VALID,918.056,VALID,0,VALID,97.3205,VALID,0,VALID,18.0443,VALID,133,VALID,0.614062,
2009-10-14, 03:09:04,VALID,918.069,VALID,0,VALID,97.1299,VALID,0,VALID,17.9468,VALID,133,VALID,0.616406,
2009-10-14, 03:10:04,VALID,918.076,VALID,0,VALID,97.1604,VALID,0,VALID,17.9468,VALID,133,VALID,0.5125,
2009-10-14, 03:11:04,VALID,918.087,VALID,0,VALID,97.1452,VALID,0,VALID,17.9468,VALID,133,VALID,0.0285156,
2009-10-14, 03:12:04,VALID,918.068,VALID,0,VALID,97.1681,VALID,0,VALID,17.9468,VALID,133,VALID,0.248828,
2009-10-14, 03:13:04,VALID,918.067,VALID,0,VALID,97.3434,VALID,0,VALID,17.9858,VALID,133,VALID,0.449609,
2009-10-14, 03:14:04,VALID,918.097,VALID,0,VALID,97.4425,VALID,0,VALID,18.0638,VALID,133,VALID,0.537891,
2009-10-14, 03:15:04,VALID,918.084,VALID,0,VALID,97.3281,VALID,0,VALID,18.0638,VALID,133,VALID,0.538281,
2009-10-14, 03:16:04,VALID,918.104,VALID,0,VALID,97.4425,VALID,0,VALID,18.1222,VALID,133,VALID,0.745703,
2009-10-14, 03:17:04,VALID,918.094,VALID,0,VALID,97.3891,VALID,0,VALID,18.1222,VALID,133,VALID,0.953516,
2009-10-14, 03:18:04,VALID,918.115,VALID,0,VALID,97.3586,VALID,0,VALID,18.1209,VALID,133,VALID,0.949219,
2009-10-14, 03:19:04,VALID,918.098,VALID,0,VALID,97.2443,VALID,0,VALID,18.0833,VALID,133,VALID,0.933594,
2009-10-14, 03:20:04,VALID,918.09,VALID,0,VALID,97.3358,VALID,0,VALID,18.1028,VALID,133,VALID,1.16133,
2009-10-14, 03:21:04,VALID,918.074,VALID,0,VALID,97.3358,VALID,0,VALID,18.1014,VALID,133,VALID,0.964453,
2009-10-14, 03:22:04,VALID,918.067,VALID,0,VALID,97.3663,VALID,0,VALID,18.1612,VALID,133,VALID,1.05039,
2009-10-14, 03:23:04,VALID,918.054,VALID,0,VALID,97.29,VALID,0,VALID,18.1612,VALID,133,VALID,1.03047,
2009-10-14, 03:24:04,VALID,918.066,VALID,0,VALID,97.229,VALID,0,VALID,18.1417,VALID,133,VALID,0.870703,
2009-10-14, 03:25:04,VALID,918.11,VALID,0,VALID,97.1757,VALID,0,VALID,18.1431,VALID,133,VALID,0.832031,
2009-10-14, 03:26:04,VALID,918.103,VALID,0,VALID,97.1071,VALID,0,VALID,18.0833,VALID,133,VALID,0.699219,
2009-10-14, 03:27:04,VALID,918.132,VALID,0,VALID,97.0308,VALID,0,VALID,18.0234,VALID,133,VALID,0.594531,
2009-10-14, 03:28:04,VALID,918.148,VALID,0,VALID,97.1071,VALID,0,VALID,18.0443,VALID,133,VALID,0.921094,
2009-10-14, 03:29:04,VALID,918.147,VALID,0,VALID,97.0842,VALID,0,VALID,18.0443,VALID,133,VALID,0.749219,
2009-10-14, 03:30:04,VALID,918.13,VALID,0,VALID,97.1376,VALID,0,VALID,18.0443,VALID,133,VALID,0.977734,
2009-10-14, 03:31:04,VALID,918.085,VALID,0,VALID,97.1604,VALID,0,VALID,18.0624,VALID,133,VALID,0.887891,
2009-10-14, 03:32:04,VALID,918.097,VALID,0,VALID,97.1147,VALID,0,VALID,18.0638,VALID,133,VALID,1.10508,
2009-10-14, 03:33:04,VALID,918.057,VALID,0,VALID,97.1299,VALID,0,VALID,18.0638,VALID,133,VALID,1.1043,
2009-10-14, 03:34:04,VALID,918.053,VALID,0,VALID,97.0156,VALID,0.107441,VALID,18.0457,VALID,133,VALID,0.878906,
2009-10-14, 03:35:04,VALID,918.029,VALID,0,VALID,96.9851,VALID,0,VALID,18.0053,VALID,133,VALID,1.13047,
2009-10-14, 03:36:04,VALID,918.015,VALID,0,VALID,96.9317,VALID,0,VALID,17.9663,VALID,133,VALID,0.716797,
2009-10-14, 03:37:04,VALID,917.979,VALID,0,VALID,96.9622,VALID,0,VALID,17.9663,VALID,133,VALID,0.777344,
2009-10-14, 03:38:04,VALID,917.993,VALID,0,VALID,97.0385,VALID,0,VALID,17.965,VALID,133,VALID,0.923437,
2009-10-14, 03:39:04,VALID,918.009,VALID,0,VALID,97.1147,VALID,0,VALID,17.9858,VALID,133,VALID,1.16094,
2009-10-14, 03:40:04,VALID,917.971,VALID,0,VALID,97.0994,VALID,0,VALID,18.0053,VALID,133,VALID,0.749609,
2009-10-14, 03:41:04,VALID,917.961,VALID,0,VALID,97.0613,VALID,0,VALID,17.9858,VALID,133,VALID,0.485156,
2009-10-14, 03:42:04,VALID,917.946,VALID,0,VALID,96.9317,VALID,0,VALID,17.9274,VALID,133,VALID,0.737891,
2009-10-14, 03:43:04,VALID,917.968,VALID,0,VALID,97.1376,VALID,0,VALID,17.9663,VALID,133,VALID,0.993359,